Location: Chenereilles
(45.4866°N, 4.0790°E)
Time: 22:05:36
(UTC+00:00)

Cosmos 1500 Rocket - Pass Details

Date: 12 November 2019
Orbit: 602 x 632 km, 82.5° (Epoch: 05 December)

Event Time Altitude Azimuth Distance (km) Brightness Sun altitude
Rises 16:51:27 0° 355° (N) 2,906 6.9 -6.4°
Reaches altitude 10° 16:53:45 10° 1° (N) 1,990 6.0 -6.8°
Maximum altitude 16:58:03 51° 78° (ENE) 771 3.7 -7.5°
Drops below altitude 10° 17:02:16 10° 155° (SSE) 1,957 6.0 -8.2°
Sets 17:04:31 0° 160° (SSE) 2,852 6.9 -8.6°
